Location: ????
(30.2663°N, 31.2484°E)
Time: 06:31:33
(UTC+00:00)

FENGYUN 1C DEB - Visible Passes

Search period start: 16 July 2024 00:00
Search period end: 26 July 2024 00:00
Orbit: 806 x 887 km, 98.7° (Epoch: 14 July)

Date Brightness Start Highest point End Pass type
(mag) Time Alt. Az. Time Alt. Az. Time Alt. Az.
16 Jul ? 21:44:01 32° N 21:44:01 32° N 21:46:58 10° N visible
17 Jul ? 21:30:50 29° NNE 21:30:50 29° NNE 21:33:46 10° N visible
17 Jul ? 23:12:45 10° NW 23:12:45 10° NW 23:12:46 10° NW visible
18 Jul ? 21:17:39 26° NNE 21:17:39 26° NNE 21:20:29 10° N visible
18 Jul ? 22:59:34 13° NW 22:59:34 13° NW 23:00:23 10° NW visible
19 Jul ? 21:04:27 22° NE 21:04:27 22° NE 21:07:04 10° NNE visible
19 Jul ? 22:46:22 17° NW 22:46:22 17° NW 22:47:47 10° NW visible
20 Jul ? 20:51:15 18° NE 20:51:15 18° NE 20:53:30 10° NNE visible
20 Jul ? 22:33:09 20° NW 22:33:09 20° NW 22:34:59 10° NNW visible
21 Jul ? 20:38:01 14° NE 20:38:01 14° NE 20:39:41 10° NNE visible
21 Jul ? 22:19:56 23° NNW 22:19:56 23° NNW 22:22:04 10° NNW visible
22 Jul ? 20:24:48 11° NE 20:24:48 11° NE 20:25:17 10° NE visible
22 Jul ? 22:06:42 26° NNW 22:06:42 26° NNW 22:09:03 10° NNW visible
23 Jul ? 21:53:28 27° N 21:53:28 27° N 21:55:55 10° N visible
24 Jul ? 21:40:13 27° N 21:40:13 27° N 21:42:42 10° N visible
25 Jul ? 21:26:57 25° NNE 21:26:57 25° NNE 21:29:22 10° N visible
